TimeEST,TemperatureF,Dew PointF,Humidity,Sea Level PressureIn,VisibilityMPH,Wind Direction,Wind SpeedMPH,Gust SpeedMPH,PrecipitationIn,Events,Conditions,WindDirDegrees,DateUTC
12:53 AM,28.0,25.0,88,30.16,10.0,Calm,Calm,-,N/A,,Clear,0,2012-02-21 05:53:00
1:53 AM,28.0,24.1,85,30.12,10.0,Calm,Calm,-,N/A,,Clear,0,2012-02-21 06:53:00
2:53 AM,28.9,24.1,82,30.12,10.0,Calm,Calm,-,N/A,,Clear,0,2012-02-21 07:53:00
3:53 AM,26.1,21.9,84,30.11,10.0,Calm,Calm,-,N/A,,Clear,0,2012-02-21 08:53:00
4:53 AM,35.1,25.0,67,30.12,10.0,South,3.5,-,N/A,,Clear,190,2012-02-21 09:53:00
5:53 AM,37.0,24.1,59,30.11,10.0,SSE,4.6,-,N/A,,Overcast,150,2012-02-21 10:53:00
6:53 AM,37.0,26.1,65,30.14,10.0,South,5.8,-,N/A,,Overcast,190,2012-02-21 11:53:00
7:53 AM,42.1,25.0,51,30.13,10.0,South,8.1,-,N/A,,Mostly Cloudy,170,2012-02-21 12:53:00
8:53 AM,43.0,27.0,53,30.09,10.0,SE,8.1,-,N/A,,Scattered Clouds,140,2012-02-21 13:53:00
9:53 AM,48.0,27.0,44,30.05,10.0,South,6.9,-,N/A,,Mostly Cloudy,170,2012-02-21 14:53:00
10:53 AM,52.0,30.9,45,30.02,10.0,South,13.8,-,N/A,,Mostly Cloudy,170,2012-02-21 15:53:00
11:53 AM,55.0,33.1,43,30.01,10.0,SW,10.4,-,N/A,,Scattered Clouds,220,2012-02-21 16:53:00
12:53 PM,59.0,34.0,39,29.97,10.0,SW,20.7,29.9,N/A,,Scattered Clouds,230,2012-02-21 17:53:00
1:53 PM,60.1,34.0,38,29.94,10.0,SW,18.4,25.3,N/A,,Partly Cloudy,230,2012-02-21 18:53:00
2:53 PM,62.1,30.9,31,29.90,10.0,SW,18.4,33.4,N/A,,Partly Cloudy,230,2012-02-21 19:53:00
3:53 PM,61.0,34.0,36,29.89,10.0,WSW,17.3,23.0,N/A,,Partly Cloudy,250,2012-02-21 20:53:00
4:53 PM,60.1,33.1,36,29.88,10.0,WSW,12.7,21.9,N/A,,Partly Cloudy,240,2012-02-21 21:53:00
5:53 PM,57.0,33.1,40,29.89,10.0,WSW,11.5,20.7,N/A,,Partly Cloudy,250,2012-02-21 22:53:00
6:53 PM,55.0,32.0,42,29.91,10.0,WSW,12.7,20.7,N/A,,Scattered Clouds,250,2012-02-21 23:53:00
7:53 PM,52.0,33.1,49,29.92,10.0,SW,9.2,-,N/A,,Scattered Clouds,230,2012-02-22 00:53:00
8:53 PM,48.0,33.1,56,29.94,10.0,SW,4.6,-,N/A,,Partly Cloudy,230,2012-02-22 01:53:00
9:53 PM,48.0,33.1,56,29.93,10.0,Calm,Calm,-,N/A,,Partly Cloudy,0,2012-02-22 02:53:00
10:53 PM,42.1,32.0,67,29.93,10.0,Calm,Calm,-,N/A,,Clear,0,2012-02-22 03:53:00
11:53 PM,39.9,32.0,73,29.93,10.0,Calm,Calm,-,N/A,,Clear,0,2012-02-22 04:53:00